Regional Weather Roundup
Issued by NWS Northern Indiana

Home | Current Version | Previous Version | Graphics & Text | Print | Product List | Glossary On
Versions: 1 2 3 4 5 6 7 8 9 10 11 12 13 14 15 16 17 18 19 20 21 22 23 24 25 26 27 28 29 30 31 32 33 34 35 36 37 38 39 40 41 42 43 44 45 46 47 48 49 50
000
ASUS43 KIWX 252300
RWRIWX

KIWX WEATHER ROUNDUP
NATIONAL WEATHER SERVICE NORTHERN INDIANA
700 PM EDT FRI JUL 25 2014

NOTE: "FAIR" INDICATES FEW OR NO CLOUDS BELOW 12,000 FEET WITH NO
SIGNIFICANT WEATHER AND/OR OBSTRUCTIONS TO VISIBILITY.

* THESE STATIONS ARE NOT UNDER NWS QUALITY CONTROL. THEY ALSO MAY NOT
  REPORT WEATHER SUCH AS PRECIPITATION OR FOG.

INZ001>027-260000-
NORTHERN INDIANA

CITY           SKY/WX    TMP DP  RH WIND       PRES   REMARKS
GARY*          CLOUDY    73  59  60 SW9       29.96R
VALPARAISO     CLOUDY    71  57  61 S6        29.98S
SOUTH BEND     CLOUDY    72  58  61 SW5       29.98S
ELKHART*       CLOUDY    72  57  60 S3        29.98F
GOSHEN         CLOUDY    71  59  65 S3        29.97F
ANGOLA*        PTSUNNY   72  59  64 SW3       29.99F
FORT WAYNE     CLOUDY    72  55  55 S3        29.99F
PERU/GRISSOM   CLOUDY    70  60  69 SW6       29.99R

$$
INZ028>050-260000-
CENTRAL INDIANA

CITY           SKY/WX    TMP DP  RH WIND       PRES   REMARKS
LAFAYETTE      SUNNY     73  57  57 VRB7      29.97R
KOKOMO*        PTSUNNY   72  57  60 SW7       29.99R
MUNCIE*        CLOUDY    71  55  56 S7        29.98F
INDIANAPOLIS   PTSUNNY   73  58  59 S10       29.96F

$$
MIZ043>046-050>051-056>058-064>065-071>073-077>080-260000-
SOUTHWEST LOWER MICHIGAN

CITY           SKY/WX    TMP DP  RH WIND       PRES   REMARKS
BATTLE CREEK   LGT RAIN  71  56  58 SW7       29.99F
BENTON HARBOR  CLOUDY    70  58  65 S5        29.95F
COLDWATER*     CLOUDY    70  59  69 SW3       29.99S
HILLSDALE*     LGT RAIN  70  56  61 W5        30.00S
HOLLAND        CLOUDY    71  60  68 S3        29.97F
GRAND RAPIDS   CLOUDY    73  57  57 SW7       29.97S
KALAMAZOO      LGT RAIN  70  57  63 S6        29.98F
STURGIS*       CLOUDY    68  61  77 SW5       29.98F
THREE RIVERS*  CLOUDY    70  62  74 SW3       29.98F

$$
OHZ001>008-015>018-024>025-260000-
NORTHWEST OHIO

CITY           SKY/WX    TMP DP  RH WIND       PRES   REMARKS
DEFIANCE       CLOUDY    73  55  53 SW8       29.99F
FINDLAY        CLOUDY    74  54  49 SW5       30.00R
TOLEDO EXPRESS CLOUDY    73  55  53 SW8       29.99S
TOLEDO METCALF CLOUDY    75  54  47 SW10      29.99S
LIMA           CLOUDY    73  54  51 SW6       30.02R

$$
&&


USA.gov is the U.S. government's official web portal to all federal, state and local government web resources and services.